COSMOS 2251 DEB, 33901

Orbit data source: Space-Track

COSMOS 2251 DEB, 33901 is space debris in LEO originally from a launch on Wed, 16 Jun 1993 UTC launched from the Plesetsk Missile And Space Complex (PKMTR). The debris from Iridium 33, an American commercial communications satellite, has been tracked extensively since its accidental collision with the defunct Russian satellite Cosmos 2251 in 2009. This event, occurring at high speed in low Earth orbit (LEO), generated thousands of pieces of space debris, significantly increasing the risk of further collisions. The Iridium 33 debris cloud has impacted space traffic management and orbital debris mitigation strategies, making it a subject of ongoing study in space situational awareness.

Loading next visibility...
Identifier
33901, 1993-036DE
Orbit
LEO
Country
Flag of CISCIS
Related business
Manufacturer
Unknown
Mission
Spacecraft
Bus & Motor
Unknown
Mass
Unknown
Launch date (UTC)
1993-06-16 (33 years ago)
Launch vehicle
Unknown
Launch site
Plesetsk Missile And Space Complex (PKMTR)
Object type
Payload
Rocket body
Debris
Shape & HBR
Unknown shape, 0.1 m
Radar Cross Section
Small (<0.1 m²)

Expand to show TLE details & history
Last TLE update: 10 hours ago

TLE from 10 hours ago
0 COSMOS 2251 DEB
1 33901U 93036DE  26037.74207163  .00086588  00000-0  34490-2 0  9992
2 33901  73.7721 290.0597 0028937  57.3739 303.0245 15.24423106903647
Epoch: 2026-02-06T17:48Z
TLE epoch observation values (Epoch: 2026-02-06T17:48:34.988Z)
Latitude
-0.0001°
Longitude
-113.9617°
Altitude
484.423 km
Speed
7.629 km/s
True Right ascension
19h 20m 14s
True Declination
0° 00' 00"
Sunlit
Object was in daylight at epoch
Visualization orbit readout
Latitude
Unknown
Longitude
Unknown
Altitude
Unknown
Speed
Unknown
Apparent Right ascension
Unknown
Apparent Declination
Unknown
Sunlit
N/A
Visualization observer readout
Local Sidereal Time
05:57:25
Azimuth
Unknown
Elevation
Unknown
Doppler factor
Unknown
Orbital elements
Apogee altitude
509.944 km
Perigee altitude
470.194 km
Semi-major axis
6,868.206 km
Eccentricity
0.00289
Inclination
73.7721°
RAAN
290.0597°
Arg. of periapsis
57.3739°
True anomaly
302.74593°
Mean anomaly
303.0245°
Eccentric anomaly
302.88527°
Mean motion
3.8131 °/min
Orbital period
94.41 mins
BSTAR
0.003449
Loading maneuver chart data...
Computing Atmospheric mass density...

Documentation

Showing up to 5 results
|